Year,Month,Day,Hour,Minute,Value (Times are PST for temperature in C)
2019,09,28,00,00,5.40
2019,09,28,00,01,5.40
2019,09,28,00,02,5.40
2019,09,28,00,03,5.40
2019,09,28,00,04,5.40
2019,09,28,00,05,5.40
2019,09,28,00,06,5.40
2019,09,28,00,07,5.40
2019,09,28,00,08,5.40
2019,09,28,00,09,5.40
2019,09,28,00,10,5.40
2019,09,28,00,11,5.40
2019,09,28,00,12,5.40
2019,09,28,00,13,5.40
2019,09,28,00,14,5.40
2019,09,28,00,15,5.40
2019,09,28,00,16,5.40
2019,09,28,00,17,5.40
2019,09,28,00,18,5.40
2019,09,28,00,19,5.40
2019,09,28,00,20,5.40
2019,09,28,00,21,5.40
2019,09,28,00,22,5.40
2019,09,28,00,23,5.40
2019,09,28,00,24,5.40
2019,09,28,00,25,5.40
2019,09,28,00,26,5.40
2019,09,28,00,27,5.40
2019,09,28,00,28,5.40
2019,09,28,00,29,5.30
2019,09,28,00,30,5.30
2019,09,28,00,31,5.30
2019,09,28,00,32,5.30
2019,09,28,00,33,5.30
2019,09,28,00,34,5.30
2019,09,28,00,35,5.30
2019,09,28,00,36,5.30
2019,09,28,00,37,5.30
2019,09,28,00,38,5.30
2019,09,28,00,39,5.20
2019,09,28,00,40,5.20
2019,09,28,00,41,5.20
2019,09,28,00,42,5.20
2019,09,28,00,43,5.20
2019,09,28,00,44,5.20
2019,09,28,00,45,5.20
2019,09,28,00,46,5.20
2019,09,28,00,47,5.20
2019,09,28,00,48,5.20
2019,09,28,00,49,5.30
2019,09,28,00,50,5.20
2019,09,28,00,51,5.20
2019,09,28,00,52,5.20
2019,09,28,00,53,5.20
2019,09,28,00,54,5.20
2019,09,28,00,55,5.20
2019,09,28,00,56,5.20
2019,09,28,00,57,5.20
2019,09,28,00,58,5.20
2019,09,28,00,59,5.20
2019,09,28,01,00,5.20
2019,09,28,01,01,5.20
2019,09,28,01,02,5.30
2019,09,28,01,03,5.30
2019,09,28,01,04,5.30
2019,09,28,01,05,5.30
2019,09,28,01,06,5.30
2019,09,28,01,07,5.30
2019,09,28,01,08,5.30
2019,09,28,01,09,5.30
2019,09,28,01,10,5.30
2019,09,28,01,11,5.30
2019,09,28,01,12,5.30
2019,09,28,01,13,5.30
2019,09,28,01,14,5.30
2019,09,28,01,15,5.30
2019,09,28,01,16,5.30
2019,09,28,01,17,5.30
2019,09,28,01,18,5.30
2019,09,28,01,19,5.30
2019,09,28,01,20,5.30
2019,09,28,01,21,5.30
2019,09,28,01,22,5.30
2019,09,28,01,23,5.30
2019,09,28,01,24,5.30
2019,09,28,01,25,5.30
2019,09,28,01,26,5.30
2019,09,28,01,27,5.30
2019,09,28,01,28,5.30
2019,09,28,01,29,5.30
2019,09,28,01,30,5.30
2019,09,28,01,31,5.30
2019,09,28,01,32,5.30
2019,09,28,01,33,5.30
2019,09,28,01,34,5.30
2019,09,28,01,35,5.30
2019,09,28,01,36,5.30
2019,09,28,01,37,5.30
2019,09,28,01,38,5.20
2019,09,28,01,39,5.20
2019,09,28,01,40,5.20
2019,09,28,01,41,5.20
2019,09,28,01,42,5.20
2019,09,28,01,43,5.20
2019,09,28,01,44,5.20
2019,09,28,01,45,5.20
2019,09,28,01,46,5.20
2019,09,28,01,47,5.20
2019,09,28,01,48,5.20
2019,09,28,01,49,5.20
2019,09,28,01,50,5.30
2019,09,28,01,51,5.30
2019,09,28,01,52,5.30
2019,09,28,01,53,5.30
2019,09,28,01,54,5.30
2019,09,28,01,55,5.30
2019,09,28,01,56,5.30
2019,09,28,01,57,5.40
2019,09,28,01,58,5.40
2019,09,28,01,59,5.40
2019,09,28,02,00,5.30
2019,09,28,02,01,5.30
2019,09,28,02,02,5.30
2019,09,28,02,03,5.30
2019,09,28,02,04,5.30
2019,09,28,02,05,5.40
2019,09,28,02,06,5.40
2019,09,28,02,07,5.40
2019,09,28,02,08,5.30
2019,09,28,02,09,5.30
2019,09,28,02,10,5.30
2019,09,28,02,11,5.30
2019,09,28,02,12,5.30
2019,09,28,02,13,5.30
2019,09,28,02,14,5.30
2019,09,28,02,15,5.30
2019,09,28,02,16,5.30
2019,09,28,02,17,5.20
2019,09,28,02,18,5.20
2019,09,28,02,19,5.20
2019,09,28,02,20,5.20
2019,09,28,02,21,5.20
2019,09,28,02,22,5.20
2019,09,28,02,23,5.20
2019,09,28,02,24,5.20
2019,09,28,02,25,5.20
2019,09,28,02,26,5.20
2019,09,28,02,27,5.20
2019,09,28,02,28,5.20
2019,09,28,02,29,5.20
2019,09,28,02,30,5.20
2019,09,28,02,31,5.20
2019,09,28,02,32,5.20
2019,09,28,02,33,5.20
2019,09,28,02,34,5.20
2019,09,28,02,35,5.20
2019,09,28,02,36,5.20
2019,09,28,02,37,5.20
2019,09,28,02,38,5.20
2019,09,28,02,39,5.20
2019,09,28,02,40,5.20
2019,09,28,02,41,5.20
2019,09,28,02,42,5.20
2019,09,28,02,43,5.20
2019,09,28,02,44,5.20
2019,09,28,02,45,5.20
2019,09,28,02,46,5.20
2019,09,28,02,47,5.20
2019,09,28,02,48,5.20
2019,09,28,02,49,5.20
2019,09,28,02,50,5.20
2019,09,28,02,51,5.20
2019,09,28,02,52,5.20
2019,09,28,02,53,5.20
2019,09,28,02,54,5.20
2019,09,28,02,55,5.20
2019,09,28,02,56,5.20
2019,09,28,02,57,5.10
2019,09,28,02,58,5.10
2019,09,28,02,59,5.10
2019,09,28,03,00,5.10
2019,09,28,03,01,5.10
2019,09,28,03,02,5.10
2019,09,28,03,03,5.20
2019,09,28,03,04,5.20
2019,09,28,03,05,5.20
2019,09,28,03,06,5.20
2019,09,28,03,07,5.20
2019,09,28,03,08,5.20
2019,09,28,03,09,5.20
2019,09,28,03,10,5.20
2019,09,28,03,11,5.20
2019,09,28,03,12,5.20
2019,09,28,03,13,5.20
2019,09,28,03,14,5.20
2019,09,28,03,15,5.20
2019,09,28,03,16,5.20
2019,09,28,03,17,5.20
2019,09,28,03,18,5.20
2019,09,28,03,19,5.20
2019,09,28,03,20,5.20
2019,09,28,03,21,5.20
2019,09,28,03,22,5.20
2019,09,28,03,23,5.20
2019,09,28,03,24,5.20
2019,09,28,03,25,5.20
2019,09,28,03,26,5.20
2019,09,28,03,27,5.20
2019,09,28,03,28,5.20
2019,09,28,03,29,5.20
2019,09,28,03,30,5.20
2019,09,28,03,31,5.10
2019,09,28,03,32,5.10
2019,09,28,03,33,5.10
2019,09,28,03,34,5.10
2019,09,28,03,35,5.10
2019,09,28,03,36,5.10
2019,09,28,03,37,5.10
2019,09,28,03,38,5.00
2019,09,28,03,39,5.00
2019,09,28,03,40,5.00
2019,09,28,03,41,4.90
2019,09,28,03,42,4.90
2019,09,28,03,43,4.90
2019,09,28,03,44,4.90
2019,09,28,03,45,4.80
2019,09,28,03,46,4.80
2019,09,28,03,47,4.80
2019,09,28,03,48,4.80
2019,09,28,03,49,4.80
2019,09,28,03,50,4.80
2019,09,28,03,51,4.80
2019,09,28,03,52,4.80
2019,09,28,03,53,4.80
2019,09,28,03,54,4.80
2019,09,28,03,55,4.80
2019,09,28,03,56,4.80
2019,09,28,03,57,4.70
2019,09,28,03,58,4.70
2019,09,28,03,59,4.70
2019,09,28,04,00,4.70
2019,09,28,04,01,4.70
2019,09,28,04,02,4.60
2019,09,28,04,03,4.60
2019,09,28,04,04,4.60
2019,09,28,04,05,4.60
2019,09,28,04,06,4.60
2019,09,28,04,07,4.60
2019,09,28,04,08,4.60
2019,09,28,04,09,4.60
2019,09,28,04,10,4.60
2019,09,28,04,11,4.60
2019,09,28,04,12,4.60
2019,09,28,04,13,4.60
2019,09,28,04,14,4.60
2019,09,28,04,15,4.60
2019,09,28,04,16,4.60
2019,09,28,04,17,4.60
2019,09,28,04,18,4.60
2019,09,28,04,19,4.60
2019,09,28,04,20,4.60
2019,09,28,04,21,4.60
2019,09,28,04,22,4.60
2019,09,28,04,23,4.60
2019,09,28,04,24,4.60
2019,09,28,04,25,4.60
2019,09,28,04,26,4.60
2019,09,28,04,27,4.60
2019,09,28,04,28,4.60
2019,09,28,04,29,4.60
2019,09,28,04,30,4.60
2019,09,28,04,31,4.60
2019,09,28,04,32,4.60
2019,09,28,04,33,4.60
2019,09,28,04,34,4.60
2019,09,28,04,35,4.60
2019,09,28,04,36,4.60
2019,09,28,04,37,4.60
2019,09,28,04,38,4.60
2019,09,28,04,39,4.60
2019,09,28,04,40,4.60
2019,09,28,04,41,4.60
2019,09,28,04,42,4.60
2019,09,28,04,43,4.60
2019,09,28,04,44,4.60
2019,09,28,04,45,4.60
2019,09,28,04,46,4.60
2019,09,28,04,47,4.60
2019,09,28,04,48,4.60
2019,09,28,04,49,4.60
2019,09,28,04,50,4.60
2019,09,28,04,51,4.70
2019,09,28,04,52,4.70
2019,09,28,04,53,4.70
2019,09,28,04,54,4.80
2019,09,28,04,55,4.80
2019,09,28,04,56,4.90
2019,09,28,04,57,4.90
2019,09,28,04,58,4.90
2019,09,28,04,59,4.90
2019,09,28,05,00,5.00
2019,09,28,05,01,5.00
2019,09,28,05,02,5.10
2019,09,28,05,03,5.10
2019,09,28,05,04,5.10
2019,09,28,05,05,5.10
2019,09,28,05,06,5.10
2019,09,28,05,07,5.10
2019,09,28,05,08,5.10
2019,09,28,05,09,5.10
2019,09,28,05,10,5.10
2019,09,28,05,11,5.10
2019,09,28,05,12,5.10
2019,09,28,05,13,5.10
2019,09,28,05,14,5.10
2019,09,28,05,15,5.10
2019,09,28,05,16,5.10
2019,09,28,05,17,5.10
2019,09,28,05,18,5.10
2019,09,28,05,19,5.10
2019,09,28,05,20,5.10
2019,09,28,05,21,5.00
2019,09,28,05,22,5.00
2019,09,28,05,23,5.00
2019,09,28,05,24,5.00
2019,09,28,05,25,5.00
2019,09,28,05,26,5.00
2019,09,28,05,27,5.00
2019,09,28,05,28,4.90
2019,09,28,05,29,4.90
2019,09,28,05,30,4.90
2019,09,28,05,31,4.90
2019,09,28,05,32,4.90
2019,09,28,05,33,4.90
2019,09,28,05,34,4.90
2019,09,28,05,35,4.90
2019,09,28,05,36,4.90
2019,09,28,05,37,4.90
2019,09,28,05,38,4.90
2019,09,28,05,39,4.90
2019,09,28,05,40,5.00
2019,09,28,05,41,5.00
2019,09,28,05,42,5.10
2019,09,28,05,43,5.10
2019,09,28,05,44,5.10
2019,09,28,05,45,5.10
2019,09,28,05,46,5.10
2019,09,28,05,47,5.10
2019,09,28,05,48,5.10
2019,09,28,05,49,5.10
2019,09,28,05,50,5.10
2019,09,28,05,51,5.10
2019,09,28,05,52,5.10
2019,09,28,05,53,5.10
2019,09,28,05,54,5.00
2019,09,28,05,55,5.00
2019,09,28,05,56,5.00
2019,09,28,05,57,5.00
2019,09,28,05,58,5.00
2019,09,28,05,59,5.10
2019,09,28,06,00,5.10
2019,09,28,06,01,5.10
2019,09,28,06,02,5.10
2019,09,28,06,03,5.20
2019,09,28,06,04,5.20
2019,09,28,06,05,5.50
2019,09,28,06,06,5.70
2019,09,28,06,07,5.80
2019,09,28,06,08,6.00
2019,09,28,06,09,6.20
2019,09,28,06,10,6.30
2019,09,28,06,11,6.40
2019,09,28,06,12,6.50
2019,09,28,06,13,6.40
2019,09,28,06,14,6.40
2019,09,28,06,15,6.40
2019,09,28,06,16,6.30
2019,09,28,06,17,6.40
2019,09,28,06,18,6.50
2019,09,28,06,19,6.50
2019,09,28,06,20,6.50
2019,09,28,06,21,6.50
2019,09,28,06,22,6.60
2019,09,28,06,23,6.60
2019,09,28,06,24,6.60
2019,09,28,06,25,6.50
2019,09,28,06,26,6.50
2019,09,28,06,27,6.40
2019,09,28,06,28,6.40
2019,09,28,06,29,6.50
2019,09,28,06,30,6.60
2019,09,28,06,31,6.70
2019,09,28,06,32,6.80
2019,09,28,06,33,7.00
2019,09,28,06,34,7.20
2019,09,28,06,35,7.20
2019,09,28,06,36,7.30
2019,09,28,06,37,7.50
2019,09,28,06,38,7.70
2019,09,28,06,39,7.90
2019,09,28,06,40,8.10
2019,09,28,06,41,8.20
2019,09,28,06,42,8.20
2019,09,28,06,43,8.10
2019,09,28,06,44,8.10
2019,09,28,06,45,8.00
2019,09,28,06,46,7.80
2019,09,28,06,47,7.80
2019,09,28,06,48,7.70
2019,09,28,06,49,7.70
2019,09,28,06,50,7.70
2019,09,28,06,51,7.70
2019,09,28,06,52,7.70
2019,09,28,06,53,7.60
2019,09,28,06,54,7.50
2019,09,28,06,55,7.40
2019,09,28,06,56,7.40
2019,09,28,06,57,7.30
2019,09,28,06,58,7.20
2019,09,28,06,59,7.20
2019,09,28,07,00,7.10
2019,09,28,07,01,7.00
2019,09,28,07,02,7.00
2019,09,28,07,03,6.90
2019,09,28,07,04,6.80
2019,09,28,07,05,6.70
2019,09,28,07,06,6.70
2019,09,28,07,07,6.60
2019,09,28,07,08,6.60
2019,09,28,07,09,6.60
2019,09,28,07,10,6.60
2019,09,28,07,11,6.60
2019,09,28,07,12,6.60
2019,09,28,07,13,6.60
2019,09,28,07,14,6.60
2019,09,28,07,15,6.60
2019,09,28,07,16,6.60
2019,09,28,07,17,6.60
2019,09,28,07,18,6.60
2019,09,28,07,19,6.60
2019,09,28,08,08,10.30
2019,09,28,08,09,10.30
2019,09,28,08,10,10.30
2019,09,28,08,11,10.30
2019,09,28,08,12,10.30
2019,09,28,08,13,10.40
2019,09,28,08,14,10.40
2019,09,28,08,15,10.40
2019,09,28,08,16,10.40
2019,09,28,08,17,10.30
2019,09,28,08,18,10.40
2019,09,28,08,19,10.40
2019,09,28,08,20,10.40
2019,09,28,08,21,10.40
2019,09,28,08,22,10.40
2019,09,28,08,23,10.40
2019,09,28,08,24,10.40
2019,09,28,08,25,10.40
2019,09,28,08,26,10.40
2019,09,28,08,27,10.50
2019,09,28,08,28,10.50
2019,09,28,08,29,10.60
2019,09,28,08,30,10.60
2019,09,28,08,31,10.60
2019,09,28,08,32,10.60
2019,09,28,08,33,10.70
2019,09,28,08,34,10.70
2019,09,28,08,35,10.80
2019,09,28,08,36,10.80
2019,09,28,08,37,10.80
2019,09,28,08,38,10.90
2019,09,28,08,39,10.90
2019,09,28,08,40,11.00
2019,09,28,08,41,11.10
2019,09,28,08,42,11.20
2019,09,28,08,43,11.20
2019,09,28,08,44,11.20
2019,09,28,08,45,11.20
2019,09,28,08,46,11.10
2019,09,28,08,47,11.10
2019,09,28,08,48,11.10
2019,09,28,08,49,11.10
2019,09,28,08,50,11.00
2019,09,28,08,51,11.00
2019,09,28,08,52,11.00
2019,09,28,08,53,10.90
2019,09,28,08,54,10.90
2019,09,28,08,55,10.90
2019,09,28,08,56,11.00
2019,09,28,08,57,11.00
2019,09,28,08,58,11.00
2019,09,28,08,59,11.00
2019,09,28,09,00,11.00
2019,09,28,09,01,11.00
2019,09,28,09,02,11.00
2019,09,28,09,03,11.00
2019,09,28,09,04,11.00
2019,09,28,09,05,11.00
2019,09,28,09,06,11.00
2019,09,28,09,07,11.00
2019,09,28,09,08,11.10
2019,09,28,09,09,11.10
2019,09,28,09,10,11.10
2019,09,28,09,11,11.10
2019,09,28,09,12,11.10
2019,09,28,09,13,11.10
2019,09,28,09,14,11.20
2019,09,28,09,15,11.20
2019,09,28,09,16,11.20
2019,09,28,09,17,11.20
2019,09,28,09,18,11.20
2019,09,28,09,19,11.20
2019,09,28,09,20,11.20
2019,09,28,09,21,11.20
2019,09,28,09,22,11.20
2019,09,28,09,23,11.30
2019,09,28,09,24,11.30
2019,09,28,09,25,11.30
2019,09,28,09,26,11.30
2019,09,28,09,27,11.30
2019,09,28,09,28,11.30
2019,09,28,09,29,11.30
2019,09,28,09,30,11.30
2019,09,28,09,31,11.40
2019,09,28,09,32,11.40
2019,09,28,09,33,11.40
2019,09,28,09,34,11.50
2019,09,28,09,35,11.60
2019,09,28,09,36,11.60
2019,09,28,09,37,11.60
2019,09,28,09,38,11.70
2019,09,28,09,39,11.70
2019,09,28,09,40,11.70
2019,09,28,09,41,11.80
2019,09,28,09,42,11.80
2019,09,28,09,43,11.90
2019,09,28,09,44,11.90
2019,09,28,09,45,11.90
2019,09,28,09,46,11.90
2019,09,28,09,47,11.90
2019,09,28,09,48,12.00
2019,09,28,09,49,12.00
2019,09,28,09,50,12.00
2019,09,28,09,51,12.00
2019,09,28,09,52,12.10
2019,09,28,09,53,12.10
2019,09,28,09,54,12.20
2019,09,28,09,55,12.20
2019,09,28,09,56,12.20
2019,09,28,09,57,12.30
2019,09,28,09,58,12.30
2019,09,28,09,59,12.30
2019,09,28,10,00,12.30
2019,09,28,10,01,12.40
2019,09,28,10,02,12.50
2019,09,28,10,03,12.50
2019,09,28,10,04,12.60
2019,09,28,10,05,12.60
2019,09,28,10,06,12.60
2019,09,28,10,07,12.60
2019,09,28,10,08,12.70
2019,09,28,10,09,12.70
2019,09,28,10,10,12.80
2019,09,28,10,11,12.80
2019,09,28,10,12,12.90
2019,09,28,10,13,13.00
2019,09,28,10,14,13.10
2019,09,28,10,15,13.10
2019,09,28,10,16,13.20
2019,09,28,10,17,13.20
2019,09,28,10,18,13.30
2019,09,28,10,19,13.30
2019,09,28,10,20,13.30
2019,09,28,10,21,13.40
2019,09,28,10,22,13.40
2019,09,28,10,23,13.40
2019,09,28,10,24,13.50
2019,09,28,10,25,13.50
2019,09,28,10,26,13.50
2019,09,28,10,27,13.50
2019,09,28,10,28,13.50
2019,09,28,10,29,13.50
2019,09,28,10,30,13.60
2019,09,28,10,31,13.60
2019,09,28,10,32,13.70
2019,09,28,10,33,13.70
2019,09,28,10,34,13.80
2019,09,28,10,35,13.80
2019,09,28,10,36,13.80
2019,09,28,10,37,13.90
2019,09,28,10,38,13.90
2019,09,28,10,39,13.90
2019,09,28,10,40,13.90
2019,09,28,10,41,14.00
2019,09,28,10,42,14.00
2019,09,28,10,43,14.10
2019,09,28,10,44,14.10
2019,09,28,10,45,14.20
2019,09,28,10,46,14.20
2019,09,28,10,47,14.20
2019,09,28,10,48,14.30
2019,09,28,10,49,14.30
2019,09,28,10,50,14.30
2019,09,28,10,51,14.30
2019,09,28,10,52,14.30
2019,09,28,10,53,14.30
2019,09,28,10,54,14.30
2019,09,28,10,55,14.30
2019,09,28,10,56,14.20
2019,09,28,10,57,14.20
2019,09,28,10,58,14.20
2019,09,28,10,59,14.20
2019,09,28,11,00,14.20
2019,09,28,11,01,14.20
2019,09,28,11,02,14.30
2019,09,28,11,03,14.40
2019,09,28,11,04,14.50
2019,09,28,11,05,14.60
2019,09,28,11,06,14.60
2019,09,28,11,07,14.70
2019,09,28,11,08,14.70
2019,09,28,11,09,14.70
2019,09,28,11,10,14.70
2019,09,28,11,11,14.80
2019,09,28,11,12,14.80
2019,09,28,11,13,14.80
2019,09,28,11,14,14.90
2019,09,28,11,15,14.90
2019,09,28,11,16,14.80
2019,09,28,11,17,14.80
2019,09,28,11,18,14.80
2019,09,28,11,19,14.80
2019,09,28,11,20,14.80
2019,09,28,11,21,14.80
2019,09,28,11,22,14.80
2019,09,28,11,23,14.90
2019,09,28,11,24,14.80
2019,09,28,11,25,14.80
2019,09,28,11,26,14.80
2019,09,28,11,27,14.70
2019,09,28,11,28,14.70
2019,09,28,11,29,14.60
2019,09,28,11,30,14.60
2019,09,28,11,31,14.60
2019,09,28,11,32,14.70
2019,09,28,11,33,14.70
2019,09,28,11,34,14.60
2019,09,28,11,35,14.60
2019,09,28,11,36,14.60
2019,09,28,11,37,14.60
2019,09,28,11,38,14.70
2019,09,28,11,39,14.60
2019,09,28,11,40,14.60
2019,09,28,11,41,14.60
2019,09,28,11,42,14.60
2019,09,28,11,43,14.70
2019,09,28,11,44,14.70
2019,09,28,11,45,14.80
2019,09,28,11,46,15.00
2019,09,28,11,47,15.00
2019,09,28,11,48,15.00
2019,09,28,11,49,15.00
2019,09,28,11,50,15.00
2019,09,28,11,51,15.00
2019,09,28,11,52,15.00
2019,09,28,11,53,15.00
2019,09,28,11,54,15.00
2019,09,28,11,55,15.00
2019,09,28,11,56,15.00
2019,09,28,11,57,15.00
2019,09,28,11,58,15.00
2019,09,28,11,59,15.00
2019,09,28,12,00,15.00
2019,09,28,12,01,15.00
2019,09,28,12,02,15.00
2019,09,28,12,03,15.00
2019,09,28,12,04,15.00
2019,09,28,12,05,15.10
2019,09,28,12,06,15.20
2019,09,28,12,07,15.30
2019,09,28,12,08,15.30
2019,09,28,12,09,15.40
2019,09,28,12,10,15.40
2019,09,28,12,11,15.40
2019,09,28,12,12,15.40
2019,09,28,12,13,15.30
2019,09,28,12,14,15.30
2019,09,28,12,15,15.40
2019,09,28,12,16,15.40
2019,09,28,12,17,15.30
2019,09,28,12,18,15.30
2019,09,28,12,19,15.30
2019,09,28,12,20,15.30
2019,09,28,12,21,15.30
2019,09,28,12,22,15.40
2019,09,28,12,23,15.40
2019,09,28,12,24,15.40
2019,09,28,12,25,15.40
2019,09,28,12,26,15.40
2019,09,28,12,27,15.50
2019,09,28,12,28,15.60
2019,09,28,12,29,15.60
2019,09,28,12,30,15.60
2019,09,28,12,31,15.70
2019,09,28,12,32,15.70
2019,09,28,12,33,15.80
2019,09,28,12,34,15.80
2019,09,28,12,35,15.90
2019,09,28,12,36,15.90
2019,09,28,12,37,15.80
2019,09,28,12,38,15.60
2019,09,28,12,39,15.50
2019,09,28,12,40,15.40
2019,09,28,12,41,15.40
2019,09,28,12,42,15.40
2019,09,28,12,43,15.40
2019,09,28,12,44,15.40
2019,09,28,12,45,15.40
2019,09,28,12,46,15.40
2019,09,28,12,47,15.30
2019,09,28,12,48,15.20
2019,09,28,12,49,15.10
2019,09,28,12,50,15.10
2019,09,28,12,51,15.20
2019,09,28,12,52,15.30
2019,09,28,12,53,15.40
2019,09,28,12,54,15.50
2019,09,28,12,55,15.60
2019,09,28,12,56,15.60
2019,09,28,12,57,15.60
2019,09,28,12,58,15.70
2019,09,28,12,59,15.60
2019,09,28,13,00,15.60
2019,09,28,13,01,15.60
2019,09,28,13,02,15.60
2019,09,28,13,03,15.60
2019,09,28,13,04,15.60
2019,09,28,13,05,15.50
2019,09,28,13,06,15.50
2019,09,28,13,07,15.40
2019,09,28,13,08,15.40
2019,09,28,13,09,15.50
2019,09,28,13,10,15.50
2019,09,28,13,11,15.60
2019,09,28,13,12,15.70
2019,09,28,13,13,15.70
2019,09,28,13,14,15.80
2019,09,28,13,15,15.90
2019,09,28,13,16,16.00
2019,09,28,13,17,16.10
2019,09,28,13,18,16.10
2019,09,28,13,19,16.20
2019,09,28,13,20,16.20
2019,09,28,13,21,16.30
2019,09,28,13,22,16.30
2019,09,28,13,23,16.30
2019,09,28,13,24,16.30
2019,09,28,13,25,16.30
2019,09,28,13,26,16.20
2019,09,28,13,27,16.20
2019,09,28,13,28,16.10
2019,09,28,13,29,16.00
2019,09,28,13,30,16.00
2019,09,28,13,31,16.00
2019,09,28,13,32,16.10
2019,09,28,13,33,16.10
2019,09,28,13,34,16.20
2019,09,28,13,35,16.10
2019,09,28,13,36,16.00
2019,09,28,13,37,15.90
2019,09,28,13,38,16.00
2019,09,28,13,39,16.00
2019,09,28,13,40,16.00
2019,09,28,13,41,16.00
2019,09,28,13,42,16.00
2019,09,28,13,43,16.00
2019,09,28,13,44,16.00
2019,09,28,13,45,15.90
2019,09,28,13,46,15.90
2019,09,28,13,47,15.90
2019,09,28,13,48,16.00
2019,09,28,13,49,16.10
2019,09,28,13,50,16.10
2019,09,28,13,51,16.10
2019,09,28,13,52,16.20
2019,09,28,13,53,16.20
2019,09,28,13,54,16.20
2019,09,28,13,55,16.20
2019,09,28,13,56,16.10
2019,09,28,13,57,16.10
2019,09,28,13,58,16.10
2019,09,28,13,59,16.10
2019,09,28,14,00,16.10
2019,09,28,14,01,16.00
2019,09,28,14,02,15.90
2019,09,28,14,03,15.80
2019,09,28,14,04,15.80
2019,09,28,14,05,15.80
2019,09,28,14,06,15.90
2019,09,28,14,07,15.90
2019,09,28,14,08,16.00
2019,09,28,14,09,16.00
2019,09,28,14,10,16.10
2019,09,28,14,11,16.10
2019,09,28,14,12,16.10
2019,09,28,14,13,16.10
2019,09,28,14,14,16.10
2019,09,28,14,15,16.10
2019,09,28,14,16,16.10
2019,09,28,14,17,16.10
2019,09,28,14,18,16.10
2019,09,28,14,19,16.10
2019,09,28,14,20,16.10
2019,09,28,14,21,16.10
2019,09,28,14,22,16.10
2019,09,28,14,23,16.00
2019,09,28,14,24,16.00
2019,09,28,14,25,16.00
2019,09,28,14,26,16.10
2019,09,28,14,27,16.10
2019,09,28,14,28,16.10
2019,09,28,14,29,16.10
2019,09,28,14,30,16.10
2019,09,28,14,31,16.20
2019,09,28,14,32,16.20
2019,09,28,14,33,16.30
2019,09,28,14,34,16.30
2019,09,28,14,35,16.30
2019,09,28,14,36,16.30
2019,09,28,14,37,16.30
2019,09,28,14,38,16.30
2019,09,28,14,39,16.30
2019,09,28,14,40,16.30
2019,09,28,14,41,16.30
2019,09,28,14,42,16.30
2019,09,28,14,43,16.30
2019,09,28,14,44,16.30
2019,09,28,14,45,16.30
2019,09,28,14,46,16.30
2019,09,28,14,47,16.30
2019,09,28,14,48,16.30
2019,09,28,14,49,16.30
2019,09,28,14,50,16.30
2019,09,28,14,51,16.30
2019,09,28,14,52,16.40
2019,09,28,14,53,16.40
2019,09,28,14,54,16.40
2019,09,28,14,55,16.30
2019,09,28,14,56,16.20
2019,09,28,14,57,16.10
2019,09,28,14,58,16.10
2019,09,28,14,59,16.10
2019,09,28,15,00,16.00
2019,09,28,15,01,16.00
2019,09,28,15,02,16.00
2019,09,28,15,03,16.00
2019,09,28,15,04,16.10
2019,09,28,15,05,16.10
2019,09,28,15,06,16.10
2019,09,28,15,07,16.10
2019,09,28,15,08,16.10
2019,09,28,15,09,16.10
2019,09,28,15,10,16.10
2019,09,28,15,11,16.20
2019,09,28,15,12,16.20
2019,09,28,15,13,16.20
2019,09,28,15,14,16.20
2019,09,28,15,15,16.20
2019,09,28,15,16,16.10
2019,09,28,15,17,16.10
2019,09,28,15,18,16.10
2019,09,28,15,19,16.20
2019,09,28,15,20,16.20
2019,09,28,15,21,16.20
2019,09,28,15,22,16.20
2019,09,28,15,23,16.20
2019,09,28,15,24,16.10
2019,09,28,15,25,16.20
2019,09,28,15,26,16.20
2019,09,28,15,27,16.20
2019,09,28,15,28,16.20
2019,09,28,15,29,16.10
2019,09,28,15,30,16.10
2019,09,28,15,31,16.10
2019,09,28,15,32,16.20
2019,09,28,15,33,16.20
2019,09,28,15,34,16.20
2019,09,28,15,35,16.20
2019,09,28,15,36,16.20
2019,09,28,15,37,16.20
2019,09,28,15,38,16.20
2019,09,28,15,39,16.10
2019,09,28,15,40,16.10
2019,09,28,15,41,16.10
2019,09,28,15,42,16.10
2019,09,28,15,43,16.10
2019,09,28,15,44,16.10
2019,09,28,15,45,16.10
2019,09,28,15,46,16.10
2019,09,28,15,47,16.10
2019,09,28,15,48,16.10
2019,09,28,15,49,16.00
2019,09,28,15,50,15.90
2019,09,28,15,51,15.90
2019,09,28,15,52,15.80
2019,09,28,15,53,15.80
2019,09,28,15,54,15.80
2019,09,28,15,55,15.80
2019,09,28,15,56,15.80
2019,09,28,15,57,15.80
2019,09,28,15,58,15.80
2019,09,28,15,59,15.90
2019,09,28,16,00,15.90
2019,09,28,16,01,15.80
2019,09,28,16,02,15.80
2019,09,28,16,03,15.80
2019,09,28,16,04,15.80
2019,09,28,16,05,15.80
2019,09,28,16,06,15.80
2019,09,28,16,07,15.80
2019,09,28,16,08,15.80
2019,09,28,16,09,15.80
2019,09,28,16,10,15.80
2019,09,28,16,11,15.80
2019,09,28,16,12,15.80
2019,09,28,16,13,15.80
2019,09,28,16,14,15.80
2019,09,28,16,15,15.80
2019,09,28,16,16,15.80
2019,09,28,16,17,15.70
2019,09,28,16,18,15.70
2019,09,28,16,19,15.60
2019,09,28,16,20,15.60
2019,09,28,16,21,15.60
2019,09,28,16,22,15.60
2019,09,28,16,23,15.60
2019,09,28,16,24,15.60
2019,09,28,16,25,15.60
2019,09,28,16,26,15.60
2019,09,28,16,27,15.60
2019,09,28,16,28,15.60
2019,09,28,16,29,15.60
2019,09,28,16,30,15.60
2019,09,28,16,31,15.60
2019,09,28,16,32,15.60
2019,09,28,16,33,15.70
2019,09,28,16,34,15.70
2019,09,28,16,35,15.70
2019,09,28,16,36,15.70
2019,09,28,16,37,15.70
2019,09,28,16,38,15.70
2019,09,28,16,39,15.70
2019,09,28,16,40,15.60
2019,09,28,16,41,15.60
2019,09,28,16,42,15.60
2019,09,28,16,43,15.60
2019,09,28,16,44,15.70
2019,09,28,16,45,15.70
2019,09,28,16,46,15.70
2019,09,28,16,47,15.70
2019,09,28,16,48,15.70
2019,09,28,16,49,15.70
2019,09,28,16,50,15.70
2019,09,28,16,51,15.70
2019,09,28,16,52,15.70
2019,09,28,16,53,15.70
2019,09,28,16,54,15.70
2019,09,28,16,55,15.70
2019,09,28,16,56,15.70
2019,09,28,16,57,15.70
2019,09,28,16,58,15.70
2019,09,28,16,59,15.70
2019,09,28,17,00,15.70
2019,09,28,17,01,15.70
2019,09,28,17,02,15.60
2019,09,28,17,03,15.60
2019,09,28,17,04,15.60
2019,09,28,17,05,15.60
2019,09,28,17,06,15.60
2019,09,28,17,07,15.60
2019,09,28,17,08,15.60
2019,09,28,17,09,15.60
2019,09,28,17,10,15.60
2019,09,28,17,11,15.60
2019,09,28,17,12,15.60
2019,09,28,17,13,15.60
2019,09,28,17,14,15.50
2019,09,28,17,15,15.50
2019,09,28,17,16,15.50
2019,09,28,17,17,15.40
2019,09,28,17,18,15.40
2019,09,28,17,19,15.40
2019,09,28,17,20,15.40
2019,09,28,17,21,15.40
2019,09,28,17,22,15.40
2019,09,28,17,23,15.40
2019,09,28,17,24,15.40
2019,09,28,17,25,15.40
2019,09,28,17,26,15.30
2019,09,28,17,27,15.30
2019,09,28,17,28,15.30
2019,09,28,17,29,15.30
2019,09,28,17,30,15.20
2019,09,28,17,31,15.20
2019,09,28,17,32,15.20
2019,09,28,17,33,15.20
2019,09,28,17,34,15.20
2019,09,28,17,35,15.10
2019,09,28,17,36,15.10
2019,09,28,17,37,15.10
2019,09,28,17,38,15.10
2019,09,28,17,39,15.10
2019,09,28,17,40,15.10
2019,09,28,17,41,15.10
2019,09,28,17,42,15.00
2019,09,28,17,43,15.00
2019,09,28,17,44,15.00
2019,09,28,17,45,15.00
2019,09,28,17,46,15.00
2019,09,28,17,47,15.00
2019,09,28,17,48,15.00
2019,09,28,17,49,15.00
2019,09,28,17,50,15.00
2019,09,28,17,51,15.00
2019,09,28,17,52,15.00
2019,09,28,17,53,15.00
2019,09,28,17,54,15.00
2019,09,28,17,55,15.00
2019,09,28,17,56,14.90
2019,09,28,17,57,14.90
2019,09,28,17,58,14.80
2019,09,28,17,59,14.80
2019,09,28,18,00,14.80
2019,09,28,18,01,14.80
2019,09,28,18,02,14.80
2019,09,28,18,03,14.80
2019,09,28,18,04,14.80
2019,09,28,18,05,14.80
2019,09,28,18,06,14.80
2019,09,28,18,07,14.70
2019,09,28,18,08,14.70
2019,09,28,18,09,14.70
2019,09,28,18,10,14.70
2019,09,28,18,11,14.70
2019,09,28,18,12,14.60
2019,09,28,18,13,14.60
2019,09,28,18,14,14.50
2019,09,28,18,15,14.50
2019,09,28,18,16,14.40
2019,09,28,18,17,14.40
2019,09,28,18,18,14.30
2019,09,28,18,19,14.30
2019,09,28,18,20,14.20
2019,09,28,18,21,14.10
2019,09,28,18,22,14.10
2019,09,28,18,23,14.00
2019,09,28,18,24,14.00
2019,09,28,18,25,13.90
2019,09,28,18,26,13.90